Alexander City, AL

6:01 PM CDT on April 26, 2017 (GMT -0500)
Russell

Weather History for KALX - March, 2014

Change the Weather History Date:

Thursday, March 6, 2014

  Actual Average (KAUO) Record (KAUO)
Temperature  
Mean Temperature 45 °F -  
Max Temperature 50 °F 66 °F 84 °F (1974)
Min Temperature 40 °F 39 °F 17 °F (1960)
Degree Days  
Heating Degree Days 20    
Moisture  
Dew Point 38 °F    
Average Humidity 79    
Maximum Humidity 85    
Minimum Humidity 55    
Precipitation  
Precipitation 0.24 in - - ()
Sea Level Pressure  
Sea Level Pressure 30.03 in    
Wind  
Wind Speed 5 mph (ENE)    
Max Wind Speed 13 mph    
Max Gust Speed 20 mph    
Visibility 8 miles    
Events Rain    
Averages and records for this station are not official NWS values.
T = Trace of Precipitation, MM = Missing Value Source: NWS Daily Summary

Daily Weather History Graph

Daily Weather History Graph

Search for Another Location

Airport or City:

Trip Planner

Search our weather history database for the weather conditions in past years. The results will help you decide how hot, cold, wet, or windy it might be!

Date:

Astronomy

Mar. 06, 2014 Rise Set
Actual Time 6:05 AM CST 5:44 PM CST
Civil Twilight 5:40 AM CST 6:09 PM CST
Nautical Twilight 5:12 AM CST 6:38 PM CST
Astronomical Twilight 4:43 AM CST 7:06 PM CST
Moon 9:31 AM CST (3/6) 11:31 PM CST (3/6)
Length of Visible Light 12h 28m
Length of Day
11h 39m
Waxing Crescent, 32% of the Moon is Illuminated
Mar 6
Waxing Crescent
Mar 8
First Quarter
Mar 16
Full
Mar 23
Last Quarter
Mar 30
New

Hourly Weather History & Observations

Time (CST) Temp. Windchill Dew Point Humidity Pressure Visibility Wind Dir Wind Speed Gust Speed Precip Events Conditions
12:15 AM 50.2 °F - 45.0 °F 82% 30.08 in 10.0 mi Calm Calm - N/A   Clear
12:35 AM 50.2 °F - 45.1 °F 83% 30.08 in 10.0 mi NE 4.6 mph - N/A   Clear
12:55 AM 50.2 °F - 45.1 °F 83% 30.08 in 10.0 mi Calm Calm - N/A   Clear
1:15 AM 50.2 °F - 45.3 °F 83% 30.08 in 10.0 mi Calm Calm - N/A   Clear
1:35 AM 50.2 °F - 45.5 °F 84% 30.07 in 10.0 mi ENE 3.5 mph - N/A   Clear
1:55 AM 50.2 °F - 45.5 °F 84% 30.06 in 10.0 mi East 4.6 mph - N/A   Clear
2:15 AM 50.2 °F - 45.5 °F 84% 30.06 in 10.0 mi East 4.6 mph - N/A   Clear
2:35 AM 50.2 °F - 45.5 °F 84% 30.05 in 10.0 mi East 3.5 mph - N/A   Clear
2:55 AM 50.2 °F - 45.5 °F 84% 30.05 in 10.0 mi ENE 5.8 mph - N/A   Clear
3:15 AM 50.2 °F - 45.5 °F 84% 30.05 in 10.0 mi ENE 4.6 mph - N/A   Clear
3:35 AM 50.2 °F - 45.3 °F 83% 30.04 in 10.0 mi ENE 6.9 mph - N/A   Clear
3:55 AM 48.0 °F - 43.2 °F 83% 30.04 in 10.0 mi ENE 4.6 mph - N/A   Clear
4:15 AM 49.8 °F - 44.8 °F 83% 30.04 in 10.0 mi East 5.8 mph - N/A   Clear
4:35 AM 48.4 °F - 43.5 °F 83% 30.05 in 10.0 mi ENE 5.8 mph - N/A   Clear
4:55 AM 47.7 °F - 42.6 °F 83% 30.03 in 10.0 mi ENE 5.8 mph - N/A   Scattered Clouds
5:15 AM 47.7 °F - 42.3 °F 82% 30.05 in 10.0 mi East 8.1 mph - N/A   Mostly Cloudy
5:35 AM 47.8 °F - 42.1 °F 80% 30.04 in 10.0 mi ENE 12.7 mph 17.3 mph N/A   Overcast
6:00 AM 50.2 °F - 44.2 °F 80% 30.04 in 10.0 mi East 8.1 mph 16.1 mph N/A   Overcast
6:15 AM 50.2 °F - 43.7 °F 78% 30.04 in 10.0 mi ENE 9.2 mph 17.3 mph N/A   Overcast
6:35 AM 50.2 °F - 42.4 °F 75% 30.05 in 10.0 mi ENE 10.4 mph 19.6 mph N/A   Overcast
6:55 AM 50.2 °F - 41.9 °F 73% 30.06 in 10.0 mi East 8.1 mph - N/A   Overcast
7:15 AM 50.2 °F - 41.0 °F 71% 30.06 in 10.0 mi ENE 4.6 mph 16.1 mph N/A   Overcast
7:35 AM 50.2 °F - 39.9 °F 68% 30.07 in 10.0 mi East 6.9 mph - N/A   Overcast
7:55 AM 50.2 °F - 38.7 °F 65% 30.04 in 10.0 mi ENE 10.4 mph 19.6 mph N/A   Overcast
8:15 AM 50.2 °F - 37.9 °F 63% 30.05 in 10.0 mi East 10.4 mph 18.4 mph N/A   Overcast
8:35 AM 50.2 °F - 37.4 °F 62% 30.04 in 10.0 mi ENE 11.5 mph 18.4 mph N/A   Overcast
8:55 AM 50.2 °F - 36.5 °F 59% 30.06 in 10.0 mi East 10.4 mph 17.3 mph N/A   Overcast
9:15 AM 50.2 °F - 35.4 °F 57% 30.05 in 10.0 mi ENE 12.7 mph 18.4 mph N/A   Mostly Cloudy
9:35 AM 50.2 °F - 35.2 °F 57% 30.05 in 10.0 mi ENE 11.5 mph 18.4 mph N/A   Mostly Cloudy
9:55 AM 48.2 °F - 32.5 °F 55% 30.05 in 10.0 mi ENE 9.2 mph 17.3 mph N/A   Mostly Cloudy
10:15 AM 47.7 °F - 32.0 °F 55% 30.05 in 10.0 mi East 8.1 mph 19.6 mph N/A   Mostly Cloudy
10:35 AM 44.1 °F 40.8 °F 35.4 °F 72% 30.05 in 4.0 mi ENE 5.8 mph - 0.02 in Rain Rain
10:55 AM 42.8 °F 38.6 °F 36.3 °F 78% 30.04 in 7.0 mi ENE 6.9 mph - 0.05 in Rain Rain
11:15 AM 43.3 °F 41.7 °F 37.0 °F 78% 30.04 in 10.0 mi ENE 3.5 mph - N/A   Overcast
11:35 AM 44.1 °F 38.6 °F 37.0 °F 76% 30.02 in 10.0 mi NE 10.4 mph 16.1 mph N/A   Overcast
11:55 AM 43.9 °F 40.5 °F 35.6 °F 73% 30.03 in 10.0 mi NE 5.8 mph 16.1 mph N/A   Overcast
12:15 PM 43.3 °F 38.1 °F 34.7 °F 72% 30.03 in 10.0 mi ENE 9.2 mph 16.1 mph N/A   Overcast
12:35 PM 43.3 °F 39.9 °F 35.2 °F 73% 30.04 in 10.0 mi NE 5.8 mph - N/A Rain Light Rain
12:55 PM 42.8 °F 39.3 °F 35.6 °F 76% 30.03 in 10.0 mi ENE 5.8 mph - N/A Rain Light Rain
1:15 PM 42.8 °F 37.5 °F 36.0 °F 77% 30.03 in 7.0 mi ENE 9.2 mph - N/A   Drizzle
1:35 PM 41.4 °F 36.8 °F 35.4 °F 79% 30.03 in 7.0 mi NE 6.9 mph - 0.01 in Rain Light Rain
1:55 PM 41.4 °F 36.8 °F 35.8 °F 81% 30.02 in 5.0 mi North 6.9 mph - 0.03 in Rain Rain
2:15 PM 41.4 °F 36.8 °F 36.0 °F 81% 30.02 in 10.0 mi NE 6.9 mph - 0.01 in Rain Light Rain
2:35 PM 41.4 °F 36.2 °F 36.1 °F 82% 30.01 in 7.0 mi NE 8.1 mph - 0.03 in Rain Light Rain
2:55 PM 41.4 °F 39.4 °F 36.1 °F 82% 30.01 in 10.0 mi NNE 3.5 mph - 0.04 in Rain Light Rain
3:15 PM 41.4 °F 36.2 °F 35.8 °F 81% 30.00 in 10.0 mi NE 8.1 mph - 0.01 in   Light Drizzle
3:35 PM 41.4 °F 36.8 °F 35.6 °F 80% 29.99 in 10.0 mi NE 6.9 mph - 0.01 in   Light Drizzle
3:55 PM 41.4 °F 37.6 °F 35.8 °F 81% 29.99 in 7.0 mi NE 5.8 mph - 0.01 in Rain Light Rain
4:15 PM 41.4 °F 36.8 °F 35.8 °F 81% 29.98 in 10.0 mi NE 6.9 mph - N/A   Drizzle
4:35 PM 41.4 °F 36.8 °F 35.8 °F 81% 29.98 in 10.0 mi NE 6.9 mph - N/A   Light Drizzle
4:55 PM 41.4 °F 37.6 °F 36.1 °F 82% 29.98 in 7.0 mi ENE 5.8 mph - N/A   Drizzle
5:15 PM 41.4 °F 39.4 °F 36.5 °F 83% 29.98 in 7.0 mi ENE 3.5 mph - N/A Rain Light Rain
5:35 PM 41.4 °F 37.6 °F 36.5 °F 83% 29.98 in 7.0 mi NE 5.8 mph - 0.01 in   Drizzle
5:55 PM 41.4 °F 38.4 °F 36.7 °F 83% 29.99 in 5.0 mi NNE 4.6 mph - 0.01 in Rain Light Rain
6:15 PM 41.4 °F 39.4 °F 36.7 °F 83% 29.99 in 5.0 mi NE 3.5 mph - 0.01 in   Drizzle
6:35 PM 41.0 °F 39.0 °F 36.3 °F 83% 29.99 in 5.0 mi NE 3.5 mph - 0.02 in   Drizzle
6:55 PM 41.0 °F 35.8 °F 36.1 °F 83% 30.00 in 5.0 mi NE 8.1 mph - 0.03 in   Drizzle
7:15 PM 40.6 °F 36.7 °F 35.6 °F 82% 30.00 in 5.0 mi NE 5.8 mph - N/A Rain Light Rain
7:35 PM 40.8 °F 36.9 °F 36.0 °F 83% 30.00 in 5.0 mi NE 5.8 mph - N/A   Light Drizzle
7:55 PM 40.5 °F 36.5 °F 35.8 °F 83% 30.01 in 4.0 mi NNE 5.8 mph - N/A   Drizzle
8:15 PM 40.1 °F - 35.6 °F 84% 30.01 in 4.0 mi Calm Calm - 0.01 in Rain Light Rain
8:35 PM 40.1 °F 38.0 °F 35.8 °F 85% 30.01 in 2.5 mi NE 3.5 mph - 0.02 in Rain Rain
8:55 PM 40.1 °F 36.9 °F 35.8 °F 85% 30.01 in 3.0 mi NE 4.6 mph - 0.05 in Rain Rain
9:15 PM 40.1 °F 38.0 °F 35.8 °F 85% 30.00 in 3.0 mi NE 3.5 mph - 0.01 in Rain Light Rain
9:35 PM 40.1 °F - 36.0 °F 85% 30.00 in 4.0 mi Calm Calm - 0.02 in   Light Drizzle
9:55 PM 40.1 °F - 36.0 °F 85% 30.01 in 4.0 mi Calm Calm - 0.02 in   Light Drizzle
10:15 PM 40.1 °F 36.9 °F 35.8 °F 85% 29.99 in 5.0 mi NE 4.6 mph - N/A   Light Drizzle
10:35 PM 40.1 °F 38.0 °F 35.8 °F 85% 29.99 in 7.0 mi NNE 3.5 mph - N/A   Overcast
10:55 PM 40.1 °F 36.9 °F 35.8 °F 85% 29.99 in 5.0 mi NNE 4.6 mph - N/A   Overcast
11:15 PM 40.3 °F 38.2 °F 36.0 °F 85% 29.98 in 4.0 mi NNE 3.5 mph - N/A   Overcast
11:40 PM 40.6 °F - 36.3 °F 85% 29.98 in 5.0 mi Calm Calm - N/A   Haze
11:55 PM 41.0 °F - 36.5 °F 84% 29.98 in 5.0 mi Calm Calm - N/A   Overcast